This is the latest recevied weather packets stored in our database for station/object N8WEL. If no packets are shown the sender has not sent any weather packets the latest 10 day(s).
| Time | Temp. | Humidity | Pressure | Rain* | Wind** | Luminosity | Snow |
|---|---|---|---|---|---|---|---|
| 1777574119 | 12.78° C | 48% | 1014.6 hPa | 0 mm | - | - | - |
| 1777573638 | 12.78° C | 50% | 1014.5 hPa | 0 mm | - | - | - |
| 1777573338 | 12.78° C | 46% | 1014.6 hPa | 0 mm | - | - | - |
| 1777573038 | 12.78° C | 49% | 1014.5 hPa | 0 mm | - | - | - |
| 1777572738 | 12.78° C | 46% | 1014.6 hPa | 0 mm | - | - | - |
| 1777572438 | 12.78° C | 51% | 1014.5 hPa | 0 mm | - | - | - |
| 1777572376 | 12.22° C | 51% | 1014.6 hPa | 0 mm | - | - | - |
| 1777571839 | 12.22° C | 50% | 1014.8 hPa | 0 mm | - | - | - |
| 1777571296 | 12.22° C | 54% | 1014.7 hPa | 0 mm | - | - | - |
| 1777570954 | 11.11° C | 56% | 1014.8 hPa | 0 mm | - | - | - |
| 1777570638 | 11.11° C | 54% | 1014.8 hPa | 0 mm | - | - | - |
| 1777570338 | 11.11° C | 53% | 1014.8 hPa | 0 mm | - | - | - |
| 1777570038 | 11.11° C | 57% | 1014.9 hPa | 0 mm | - | - | - |
| 1777569697 | 11.11° C | 55% | 1015 hPa | 0 mm | - | - | - |
| 1777569396 | 11.11° C | 56% | 1015.1 hPa | 0 mm | - | - | - |
| 1777569096 | 11.67° C | 54% | 1015 hPa | 0 mm | - | - | - |
| 1777568586 | 11.11° C | 57% | 1015.1 hPa | 0 mm | - | - | - |
| 1777568213 | 10.56° C | 58% | 1015.2 hPa | 0 mm | - | - | - |
| 1777567916 | 10.56° C | 60% | 1015.3 hPa | 0 mm | - | - | - |
| 1777567711 | 10.56° C | 63% | 1015.3 hPa | 0 mm | - | - | - |
| 1777567317 | 10.56° C | 60% | 1015.3 hPa | 0 mm | - | - | - |
| 1777566998 | 10° C | 64% | 1015.4 hPa | 0 mm | - | - | - |
| 1777566997 | 9.44° C | 63% | 1015.3 hPa | 0 mm | - | - | - |
| 1777565967 | 9.44° C | 69% | 1015.3 hPa | 0 mm | - | - | - |
| 1777565964 | 8.89° C | 70% | 1015.3 hPa | 0 mm | - | - | - |
* Rain latest hour (hover to see other rain measurements)
** Current wind speed in m/s (hover to see current wind gust speed)